H1 CPF 2 NER 2025 8 31 9 243 01 glonass140 H2 1903001 9140 44299 2025 8 31 0 0 0 2025 9 3 23 45 0 900 1 1 0 0 0 1 H9 10 0 60918 0.00000 0 -19017760.088 -16952507.058 -1151782.975 10 0 60918 900.00000 0 -19065440.850 -16818561.695 2053290.010 10 0 60918 1800.00000 0 -18790813.521 -16444656.005 5218467.384 10 0 60918 2700.00000 0 -18169927.179 -15880536.439 8282289.092 10 0 60918 3600.00000 0 -17190953.120 -15181176.497 11185317.857 10 0 60918 4500.00000 0 -15854875.289 -14404298.044 13871289.182 10 0 60918 5400.00000 0 -14175655.055 -13607797.137 16288195.322 10 0 60918 6300.00000 0 -12179863.888 -12847183.169 18389282.819 10 0 60918 7200.00000 0 -9905799.622 -12173138.945 20133945.232 10 0 60918 8100.00000 0 -7402123.296 -11629303.609 21488495.051 10 0 60918 9000.00000 0 -4726073.079 -11250370.587 22426801.345 10 0 60918 9900.00000 0 -1941328.922 -11060579.150 22930782.236 10 0 60918 10800.00000 0 884384.481 -11072661.740 22990744.061 10 0 60918 11700.00000 0 3681858.488 -11287290.113 22605561.750 10 0 60918 12600.00000 0 6383020.641 -11693042.912 21782697.587 10 0 60918 13500.00000 0 8923507.484 -12266895.742 20538058.288 10 0 60918 14400.00000 0 11245085.409 -12975213.488 18895692.875 10 0 60918 15300.00000 0 13297820.870 -13775203.899 16887336.528 10 0 60918 16200.00000 0 15041911.446 -14616772.495 14551808.215 10 0 60918 17100.00000 0 16449102.809 -15444702.059 11934272.447 10 0 60918 18000.00000 0 17503633.362 -16201066.348 9085378.095 10 0 60918 18900.00000 0 18202667.536 -16827777.465 6060289.611 10 0 60918 19800.00000 0 18556199.713 -17269160.364 2917628.220 10 0 60918 20700.00000 0 18586432.554 -17474446.207 -281657.248 10 0 60918 21600.00000 0 18326655.524 -17400079.163 -3475468.552 10 0 60918 22500.00000 0 17819670.351 -17011738.503 -6601762.645 10 0 60918 23400.00000 0 17115829.384 -16285989.371 -9599759.103 10 0 60918 24300.00000 0 16270769.402 -15211490.862 -12411126.525 10 0 60918 25200.00000 0 15342936.479 -13789708.458 -14981124.248 10 0 60918 26100.00000 0 14391006.672 -12035098.635 -17259676.313 10 0 60918 27000.00000 0 13471311.905 -9974755.715 -19202356.066 10 0 60918 27900.00000 0 12635380.381 -7647533.728 -20771261.362 10 0 60918 28800.00000 0 11927696.143 -5102678.334 -21935762.634 10 0 60918 29700.00000 0 11383773.160 -2398024.648 -22673108.577 10 0 60918 30600.00000 0 11028625.969 402164.816 -22968877.148 10 0 60918 31500.00000 0 10875702.083 3229632.442 -22817262.593 10 0 60918 32400.00000 0 10926321.710 6014726.979 -22221192.602 10 0 60918 33300.00000 0 11169648.694 8689065.833 -21192272.998 10 0 60918 34200.00000 0 11583193.947 11188147.128 -19750560.904 10 0 60918 35100.00000 0 12133829.894 13453802.537 -17924170.745 10 0 60918 36000.00000 0 12779272.607 15436388.622 -15748720.856 10 0 60918 36900.00000 0 13469968.272 17096625.313 -13266631.780 10 0 60918 37800.00000 0 14151303.344 18407005.245 -10526290.392 10 0 60918 38700.00000 0 14766043.901 19352715.855 -7581096.817 10 0 60918 39600.00000 0 15256899.929 19932036.839 -4488413.590 10 0 60918 40500.00000 0 15569105.040 20156197.983 -1308438.527 10 0 60918 41400.00000 0 15652901.639 20048705.253 1896975.729 10 0 60918 42300.00000 0 15465825.790 19644165.600 5065531.446 10 0 60918 43200.00000 0 14974694.856 18986662.040 8135700.485 10 0 60918 44100.00000 0 14157213.891 18127749.368 11047919.717 10 0 60918 45000.00000 0 13003133.178 17124156.535 13745743.686 10 0 60918 45900.00000 0 11514908.476 16035293.527 16176932.327 10 0 60918 46800.00000 0 9707836.545 14920668.269 18294453.229 10 0 60918 47700.00000 0 7609660.527 13837322.174 20057379.936 10 0 60918 48600.00000 0 5259661.729 12837391.503 21431670.191 10 0 60918 49500.00000 0 2707275.428 11965895.915 22390810.481 10 0 60918 50400.00000 0 10287.758 11258845.618 22916315.885 10 0 60918 51300.00000 0 -2767312.411 10741745.005 22998076.921 10 0 60918 52200.00000 0 -5557738.807 10428554.036 22634547.786 10 0 60918 53100.00000 0 -8291972.229 10321149.707 21832773.050 10 0 60918 54000.00000 0 -10902379.714 10409309.325 20608252.581 10 0 60918 54900.00000 0 -13325281.789 10671215.939 18984647.068 10 0 60918 55800.00000 0 -15503363.098 11074464.830 16993329.221 10 0 60918 56700.00000 0 -17387827.969 11577529.339 14672788.291 10 0 60918 57600.00000 0 -18940212.562 12131625.288 12067898.158 10 0 60918 58500.00000 0 -20133779.000 12682896.570 9229061.797 10 0 60918 59400.00000 0 -20954433.759 13174830.826 6211247.340 10 0 60918 60300.00000 0 -21401132.017 13550804.202 3072933.199 10 0 60918 61200.00000 0 -21485750.741 13756648.193 -125018.173 10 0 60918 62100.00000 0 -21232435.352 13743130.201 -3320536.636 10 0 60918 63000.00000 0 -20676446.875 13468242.469 -6451548.242 10 0 60918 63900.00000 0 -19862557.487 12899201.619 -9457183.106 10 0 60918 64800.00000 0 -18843061.626 12014072.831 -12278963.394 10 0 60918 65700.00000 0 -17675486.203 10802948.178 -14861947.742 10 0 60918 66600.00000 0 -16420096.469 9268627.284 -17155809.038 10 0 60918 67500.00000 0 -15137302.892 7426769.377 -19115823.809 10 0 60918 68400.00000 0 -13885078.773 5305508.099 -20703753.183 10 0 60918 69300.00000 0 -12716498.014 2944543.199 -21888597.493 10 0 60918 70200.00000 0 -11677497.401 393745.417 -22647209.200 10 0 60918 71100.00000 0 -10804958.242 -2288668.506 -22964751.660 10 0 60918 72000.00000 0 -10125188.694 -5038315.389 -22834994.310 10 0 60918 72900.00000 0 -9652871.002 -7787089.413 -22260438.185 10 0 60918 73800.00000 0 -9390518.111 -10465768.478 -21252269.031 10 0 60918 74700.00000 0 -9328462.376 -13006674.447 -19830138.771 10 0 60918 75600.00000 0 -9445376.418 -15346276.179 -18021779.536 10 0 60918 76500.00000 0 -9709303.402 -17427626.612 -15862457.844 10 0 60918 77400.00000 0 -10079152.316 -19202532.054 -13394279.876 10 0 60918 78300.00000 0 -10506593.858 -20633363.170 -10665361.834 10 0 60918 79200.00000 0 -10938275.523 -21694432.412 -7728882.194 10 0 60918 80100.00000 0 -11318260.811 -22372880.978 -4642035.212 10 0 60918 81000.00000 0 -11590588.056 -22669039.376 -1464907.032 10 0 60918 81900.00000 0 -11701839.413 -22596248.021 1740702.691 10 0 60918 82800.00000 0 -11603610.359 -22180147.228 4912489.657 10 0 60918 83700.00000 0 -11254774.625 -21457468.430 7988859.933 10 0 60918 84600.00000 0 -10623448.462 -20474379.348 10910126.883 10 0 60918 85500.00000 0 -9688571.277 -19284454.415 13619666.476 10 0 60919 0.00000 0 -8441036.260 -17946357.227 16065008.494 10 0 60919 900.00000 0 -6884322.962 -16521332.479 18198844.302 10 0 60919 1800.00000 0 -5034607.195 -15070614.739 19979929.358 10 0 60919 2700.00000 0 -2920341.518 -13652860.056 21373868.608 10 0 60919 3600.00000 0 -581325.235 -12321708.878 22353767.658 10 0 60919 4500.00000 0 1932698.440 -11123580.363 22900739.963 10 0 60919 5400.00000 0 4563860.482 -10095788.915 23004261.327 10 0 60919 6300.00000 0 7248325.118 -9265060.049 22662366.019 10 0 60919 7200.00000 0 9918701.815 -8646506.095 21881681.392 10 0 60919 8100.00000 0 12506611.921 -8243103.285 20677300.656 10 0 60919 9000.00000 0 14945305.410 -8045691.163 19072496.058 10 0 60919 9900.00000 0 17172220.932 -8033493.902 17098277.402 10 0 60919 10800.00000 0 19131384.509 -8175141.610 14792803.442 10 0 60919 11700.00000 0 20775548.454 -8430149.128 12200656.266 10 0 60919 12600.00000 0 22067982.357 -8750790.797 9371991.383 10 0 60919 13500.00000 0 22983841.907 -9084292.993 6361578.611 10 0 60919 14400.00000 0 23511058.405 -9375252.731 3227751.140 10 0 60919 15300.00000 0 23650711.435 -9568180.746 31282.271 10 0 60919 16200.00000 0 23416868.460 -9610061.764 -3165789.013 10 0 60919 17100.00000 0 22835897.328 -9452823.450 -6301361.106 10 0 60919 18000.00000 0 21945279.825 -9055608.834 -9314477.967 10 0 60919 18900.00000 0 20791975.437 -8386754.894 -12146518.590 10 0 60919 19800.00000 0 19430403.691 -7425391.976 -14742344.057 10 0 60919 20700.00000 0 17920129.674 -6162594.508 -17051379.042 10 0 60919 21600.00000 0 16323350.129 -4602032.256 -19028605.978 10 0 60919 22500.00000 0 14702286.065 -2760092.415 -20635451.702 10 0 60919 23400.00000 0 13116591.946 -665465.193 -21840548.583 10 0 60919 24300.00000 0 11620890.879 1641791.701 -22620354.642 10 0 60919 25200.00000 0 10262539.866 4111672.157 -22959620.049 10 0 60919 26100.00000 0 9079719.467 6686066.260 -22851690.437 10 0 60919 27000.00000 0 8099928.401 9300954.145 -22298640.752 10 0 60919 27900.00000 0 7338946.357 11888858.033 -21311236.789 10 0 60919 28800.00000 0 6800308.370 14381450.176 -19908724.950 10 0 60919 29700.00000 0 6475312.305 16712207.775 -18118454.287 10 0 60919 30600.00000 0 6343558.225 18819003.786 -15975338.282 10 0 60919 31500.00000 0 6373995.758 20646525.071 -13521167.095 10 0 60919 32400.00000 0 6526433.843 22148416.678 -10803784.173 10 0 60919 33300.00000 0 6753447.556 23289062.596 -7876143.870 10 0 60919 34200.00000 0 7002599.730 24044928.766 -4795269.336 10 0 60919 35100.00000 0 7218881.847 24405412.851 -1621131.938 10 0 60919 36000.00000 0 7347269.404 24373166.229 1584524.957 10 0 60919 36900.00000 0 7335282.379 23963876.174 4759393.876 10 0 60919 37800.00000 0 7135441.522 23205519.053 7841818.473 10 0 60919 38700.00000 0 6707515.998 22137117.675 10771991.882 10 0 60919 39600.00000 0 6020467.133 20807056.663 13493114.585 10 0 60919 40500.00000 0 5054006.253 19271027.965 15952489.468 10 0 60919 41400.00000 0 3799701.166 17589693.689 18102533.363 10 0 60919 42300.00000 0 2261584.968 15826164.709 19901686.369 10 0 60919 43200.00000 0 456241.793 14043400.513 21315202.562 10 0 60919 44100.00000 0 -1587634.181 12301638.382 22315808.248 10 0 60919 45000.00000 0 -3830188.389 10655958.187 22884216.433 10 0 60919 45900.00000 0 -6221825.347 9154082.951 23009488.979 10 0 60919 46800.00000 0 -8705039.972 7834505.220 22689240.521 10 0 60919 47700.00000 0 -11216586.028 6725015.661 21929680.989 10 0 60919 48600.00000 0 -13689893.332 5841693.651 20745496.212 10 0 60919 49500.00000 0 -16057635.175 5188400.628 19159568.746 10 0 60919 50400.00000 0 -18254341.108 4756796.456 17202543.736 10 0 60919 51300.00000 0 -20218948.180 4526877.528 14912247.233 10 0 60919 52200.00000 0 -21897185.870 4468013.969 12332966.957 10 0 60919 53100.00000 0 -23243696.305 4540442.587 9514608.091 10 0 60919 54000.00000 0 -24223801.867 4697153.273 6511739.102 10 0 60919 54900.00000 0 -24814846.375 4886089.893 3382544.853 10 0 60919 55800.00000 0 -25007053.361 5052573.302 187706.381 10 0 60919 56700.00000 0 -24803864.763 5141844.364 -3010771.540 10 0 60919 57600.00000 0 -24221744.889 5101619.360 -6150762.601 10 0 60919 58500.00000 0 -23289456.880 4884549.160 -9171227.435 10 0 60919 59400.00000 0 -22046841.070 4450477.128 -12013404.553 10 0 60919 60300.00000 0 -20543145.762 3768398.876 -14621959.965 10 0 60919 61200.00000 0 -18834979.985 2818039.215 -16946072.378 10 0 60919 62100.00000 0 -16983973.909 1590977.710 -18940432.051 10 0 60919 63000.00000 0 -15054245.116 91273.148 -20566133.080 10 0 60919 63900.00000 0 -13109777.270 -1664441.570 -21791440.980 10 0 60919 64800.00000 0 -11211821.491 -3647400.173 -22592419.980 10 0 60919 65700.00000 0 -9416429.787 -5817662.785 -22953407.246 10 0 60919 66600.00000 0 -7772224.335 -8125555.949 -22867324.333 10 0 60919 67500.00000 0 -6318496.371 -10513533.752 -22335819.423 10 0 60919 68400.00000 0 -5083714.379 -12918382.931 -21369237.300 10 0 60919 69300.00000 0 -4084503.942 -15273680.031 -19986417.465 10 0 60919 70200.00000 0 -3325141.438 -17512397.923 -18214324.264 10 0 60919 71100.00000 0 -2797581.945 -19569552.454 -16087516.300 10 0 60919 72000.00000 0 -2482018.898 -21384778.138 -13647465.739 10 0 60919 72900.00000 0 -2347950.379 -22904724.740 -10941741.208 10 0 60919 73800.00000 0 -2355705.296 -24085174.137 -8023070.850 10 0 60919 74700.00000 0 -2458363.180 -24892788.731 -4948304.630 10 0 60919 75600.00000 0 -2603984.527 -25306418.413 -1777297.082 10 0 60919 76500.00000 0 -2738055.647 -25317911.902 1428266.740 10 0 60919 77400.00000 0 -2806042.999 -24932399.442 4606078.190 10 0 60919 78300.00000 0 -2755947.695 -24168036.304 7694420.511 10 0 60919 79200.00000 0 -2540751.263 -23055219.349 10633368.606 10 0 60919 80100.00000 0 -2120648.761 -21635311.062 13365949.470 10 0 60919 81000.00000 0 -1464974.835 -19958925.937 15839240.856 10 0 60919 81900.00000 0 -553741.571 -18083852.079 18005387.400 10 0 60919 82800.00000 0 621276.306 -16072695.673 19822515.375 10 0 60919 83700.00000 0 2055954.250 -13990346.884 21255529.591 10 0 60919 84600.00000 0 3733753.231 -11901372.557 22276778.426 10 0 60919 85500.00000 0 5626180.437 -9867443.513 22866575.577 10 0 60920 0.00000 0 7693756.393 -7944902.390 23013569.826 10 0 60920 900.00000 0 9887450.161 -6182570.593 22714956.807 10 0 60920 1800.00000 0 12150521.296 -4619886.370 21976529.332 10 0 60920 2700.00000 0 14420697.104 -3285446.269 20812565.935 10 0 60920 3600.00000 0 16632593.654 -2196011.696 19245559.315 10 0 60920 4500.00000 0 18720282.672 -1356019.617 17305789.541 10 0 60920 5400.00000 0 20619899.009 -757617.067 15030749.269 10 0 60920 6300.00000 0 22272181.522 -381217.454 12464430.858 10 0 60920 7200.00000 0 23624842.443 -196555.197 9656487.846 10 0 60920 8100.00000 0 24634666.980 -164194.554 6661285.680 10 0 60920 9000.00000 0 25269255.445 -237429.453 3536858.859 10 0 60920 9900.00000 0 25508334.660 -364494.660 343793.791 10 0 60920 10800.00000 0 25344582.889 -490995.163 -2855941.609 10 0 60920 11700.00000 0 24783932.649 -562451.164 -6000199.178 10 0 60920 12600.00000 0 23845337.433 -526850.707 -9027859.186 10 0 60920 13500.00000 0 22560010.884 -337101.238 -11880022.611 10 0 60920 14400.00000 0 20970169.177 46724.745 -14501163.275 10 0 60920 15300.00000 0 19127328.482 655446.421 -16840216.655 10 0 60920 16200.00000 0 17090228.228 1509217.660 -18851583.390 10 0 60920 17100.00000 0 14922466.889 2616424.076 -20496027.190 10 0 60920 18000.00000 0 12689949.272 3973082.683 -21741448.865 10 0 60920 18900.00000 0 10458252.336 5562771.467 -22563520.757 10 0 60920 19800.00000 0 8290020.049 7357093.751 -22946168.670 10 0 60920 20700.00000 0 6242496.616 9316659.404 -22881891.413 10 0 60920 21600.00000 0 4365301.487 11392543.044 -22371911.365 10 0 60920 22500.00000 0 2698539.288 13528158.953 -21426152.859 10 0 60920 23400.00000 0 1271323.629 15661474.664 -20063048.616 10 0 60920 24300.00000 0 100776.074 17727470.579 -18309177.915 10 0 60920 25200.00000 0 -808458.624 19660742.443 -16198743.649 10 0 60920 26100.00000 0 -1464161.905 21398137.208 -13772898.676 10 0 60920 27000.00000 0 -1885959.109 22881311.306 -11078935.038 10 0 60920 27900.00000 0 -2104231.878 24059103.585 -8169352.468 10 0 60920 28800.00000 0 -2158573.100 24889623.004 -5100825.159 10 0 60920 29700.00000 0 -2095851.716 25341963.359 -1933087.904 10 0 60920 30600.00000 0 -1967971.176 25397473.309 1272235.710 10 0 60920 31500.00000 0 -1829418.136 25050528.915 4452839.186 10 0 60920 32400.00000 0 -1734706.631 24308777.173 7546948.738 10 0 60920 33300.00000 0 -1735826.954 23192841.465 10494524.411 10 0 60920 34200.00000 0 -1879807.845 21735502.535 13238422.978 10 0 60920 35100.00000 0 -2206495.267 19980390.573 15725500.160 10 0 60920 36000.00000 0 -2746641.473 17980244.165 17907631.282 10 0 60920 36900.00000 0 -3520384.614 15794809.658 19742631.412 10 0 60920 37800.00000 0 -4536182.437 13488468.857 21195058.406 10 0 60920 38700.00000 0 -5790244.529 11127693.733 22236884.684 10 0 60920 39600.00000 0 -7266486.754 8778433.361 22848026.205 10 0 60920 40500.00000 0 -8937009.928 6503540.537 23016719.793 10 0 60920 41400.00000 0 -10763083.284 4360343.429 22739742.660 10 0 60920 42300.00000 0 -12696592.580 2398461.353 22022470.673 10 0 60920 43200.00000 0 -14681893.763 657953.519 20878774.602 10 0 60920 44100.00000 0 -16657996.492 -832124.113 19330756.244 10 0 60920 45000.00000 0 -18560988.173 -2054695.364 17408328.978 10 0 60920 45900.00000 0 -20326599.155 -3005134.341 15148649.931 10 0 60920 46800.00000 0 -21892803.548 -3691211.147 12595413.515 10 0 60920 47700.00000 0 -23202348.252 -4132515.544 9798018.671 10 0 60920 48600.00000 0 -24205105.199 -4359382.881 6810624.621 10 0 60920 49500.00000 0 -24860148.642 -4411367.284 3691112.142 10 0 60920 50400.00000 0 -25137470.140 -4335326.132 499969.597 10 0 60920 51300.00000 0 -25019258.593 -4183196.337 -2700875.353 10 0 60920 52200.00000 0 -24500690.457 -4009556.223 -5849256.011 10 0 60920 53100.00000 0 -23590195.544 -3869076.194 -8883975.470 10 0 60920 54000.00000 0 -22309185.737 -3813966.475 -11746000.199 10 0 60920 54900.00000 0 -20691256.489 -3891530.751 -14379614.636 10 0 60920 55800.00000 0 -18780893.294 -4141930.353 -16733513.543 10 0 60920 56700.00000 0 -16631736.288 -4596255.000 -18761810.103 10 0 60920 57600.00000 0 -14304474.913 -5274983.357 -20424939.357 10 0 60920 58500.00000 0 -11864460.334 -6186900.183 -21690438.605 10 0 60920 59400.00000 0 -9379135.325 -7328517.635 -22533588.947 10 0 60920 60300.00000 0 -6915389.069 -8684026.837 -22937904.889 10 0 60920 61200.00000 0 -4536947.579 -10225783.346 -22895462.005 10 0 60920 62100.00000 0 -2301908.934 -11915307.388 -22407055.889 10 0 60920 63000.00000 0 -260526.327 -13704757.815 -21482189.019 10 0 60920 63900.00000 0 1546668.475 -15538818.469 -20138885.574 10 0 60920 64800.00000 0 3090323.213 -17356917.973 -18403337.748 10 0 60920 65700.00000 0 4353244.452 -19095689.667 -16309390.506 10 0 60920 66600.00000 0 5330858.163 -20691568.011 -13897875.044 10 0 60920 67500.00000 0 6031133.722 -22083411.838 -11215804.386 10 0 60920 68400.00000 0 6473976.316 -23215043.663 -8315447.384 10 0 60920 69300.00000 0 6690115.356 -24037597.729 -5253300.006 10 0 60920 70200.00000 0 6719537.950 -24511577.692 -2088974.881 10 0 60920 71100.00000 0 6609535.716 -24608537.316 1115968.230 10 0 60920 72000.00000 0 6412449.517 -24312313.659 4299227.250 10 0 60920 72900.00000 0 6183209.231 -23619761.444 7398973.538 10 0 60920 73800.00000 0 5976773.992 -22540958.519 10355054.334 10 0 60920 74700.00000 0 5845582.067 -21098874.734 13110158.108 10 0 60920 75600.00000 0 5837118.637 -19328519.131 15610920.308 10 0 60920 76500.00000 0 5991704.203 -17275602.033 17808948.507 10 0 60920 77400.00000 0 6340596.584 -14994768.639 19661747.911 10 0 60920 78300.00000 0 6904485.907 -12547478.148 21133530.498 10 0 60920 79200.00000 0 7692445.306 -9999616.589 22195893.537 10 0 60920 80100.00000 0 8701380.870 -7418942.080 22828355.768 10 0 60920 81000.00000 0 9916003.653 -4872467.551 23018742.301 10 0 60920 81900.00000 0 11309325.042 -2423888.061 22763411.930 10 0 60920 82800.00000 0 12843655.254 -131157.731 22067323.279 10 0 60920 83700.00000 0 14472064.154 1955685.105 20943938.885 10 0 60920 84600.00000 0 16140244.681 3796356.167 19414968.990 10 0 60920 85500.00000 0 17788702.526 5361752.235 17509959.461 10 0 60921 0.00000 0 19355182.052 6634908.914 15265731.121 10 0 60921 900.00000 0 20777229.417 7611450.968 12725678.859 10 0 60921 1800.00000 0 21994784.855 8299515.512 9938945.850 10 0 60921 2700.00000 0 22952699.263 8719153.883 6959483.511 10 0 60921 3600.00000 0 23603067.950 8901235.591 3845017.101 10 0 60921 4500.00000 0 23907284.318 8885900.988 655934.925 10 0 60921 5400.00000 0 23837726.525 8720627.475 -2545877.812 10 0 60921 6300.00000 0 23379005.124 8457990.635 -5698238.205 10 0 60921 7200.00000 0 22528717.797 8153214.826 -8739874.567 10 0 60921 8100.00000 0 21297677.779 7861617.007 -11611621.256 10 0 60921 9000.00000 0 19709604.581 7636052.435 -14257575.653 10 0 60921 9900.00000 0 17800288.334 7524471.144 -16626194.026 10 0 60921 10800.00000 0 15616261.267 7567689.654 -18671304.200 10 0 60921 11700.00000 0 13213030.776 7797473.505 -20353014.514 10 0 60921 12600.00000 0 10652947.157 8235013.132 -21638500.610 10 0 60921 13500.00000 0 8002794.626 8889858.998 -22502654.056 10 0 60921 14400.00000 0 5331205.939 9759362.447 -22928579.620 10 0 60921 15300.00000 0 2706008.573 10828647.257 -22907930.993 10 0 60921 16200.00000 0 191613.247 12071114.248 -22441078.064 10 0 60921 17100.00000 0 -2153446.192 13449458.667 -21537102.191 10 0 60921 18000.00000 0 -4278718.816 14917158.076 -20213619.347 10 0 60921 18900.00000 0 -6143696.742 16420368.405 -18496434.532 10 0 60921 19800.00000 0 -7719252.102 17900148.336 -16419034.203 10 0 60921 20700.00000 0 -8988591.587 19294918.015 -14021926.870 10 0 60921 21600.00000 0 -9947689.815 20543048.052 -11351845.077 10 0 60921 22500.00000 0 -10605184.967 21585469.103 -8460824.948 10 0 60921 23400.00000 0 -10981742.964 22368191.401 -5405182.020 10 0 60921 24300.00000 0 -11108919.132 22844627.531 -2244404.265 10 0 60921 25200.00000 0 -11027567.529 22977620.143 960015.120 10 0 60921 26100.00000 0 -10785867.288 22741089.107 4145781.408 10 0 60921 27000.00000 0 -10437051.290 22121228.861 7251014.174 10 0 60921 27900.00000 0 -10036934.794 21117206.050 10215450.991 10 0 60921 28800.00000 0 -9641349.666 19741328.749 12981615.190 10 0 60921 29700.00000 0 -9303593.308 18018680.930 15495925.054 10 0 60921 30600.00000 0 -9072000.162 15986238.179 17709723.406 10 0 60921 31500.00000 0 -8987737.984 13691502.215 19580208.412 10 0 60921 32400.00000 0 -9082921.133 11190711.501 21071248.769 10 0 60921 33300.00000 0 -9379119.444 8546702.314 22154068.876 10 0 60921 34200.00000 0 -9886324.564 5826508.769 22807792.173 10 0 60921 35100.00000 0 -10602416.407 3098800.426 23019833.545 10 0 60921 36000.00000 0 -11513151.753 431262.389 22786134.370 10 0 60921 36900.00000 0 -12592675.429 -2111975.154 22111236.490 10 0 60921 37800.00000 0 -13804533.135 -4472753.298 21008194.101 10 0 60921 38700.00000 0 -15103144.369 -6601048.443 19498325.189 10 0 60921 39600.00000 0 -16435675.012 -8456795.957 17610806.837 10 0 60921 40500.00000 0 -17744232.595 -10011299.296 15382121.319 10 0 60921 41400.00000 0 -18968293.747 -11248167.220 12855362.513 10 0 60921 42300.00000 0 -20047263.436 -12163740.874 10079414.748 10 0 60921 43200.00000 0 -20923059.646 -12766993.410 7108018.620 10 0 60921 44100.00000 0 -21542615.626 -13078906.535 3998740.628 10 0 60921 45000.00000 0 -21860194.625 -13131350.043 811865.642 10 0 60921 45900.00000 0 -21839419.358 -12965511.246 -2390767.022 10 0 60921 46800.00000 0 -21454929.835 -12629940.213 -5546961.697 10 0 60921 47700.00000 0 -20693598.388 -12178293.104 -8595375.301 10 0 60921 48600.00000 0 -19555249.035 -11666868.961 -11476713.363 10 0 60921 49500.00000 0 -18052848.972 -11152044.289 -14134889.318 10 0 60921 50400.00000 0 -16212162.211 -10687714.458 -16518123.820 10 0 60921 51300.00000 0 -14070878.024 -10322850.891 -18579961.871 10 0 60921 52200.00000 0 -11677249.087 -10099278.334 -20280187.220 10 0 60921 53100.00000 0 -9088295.068 -10049767.305 -21585615.433 10 0 60921 54000.00000 0 -6367645.772 -10196523.543 -22470749.551 10 0 60921 54900.00000 0 -3583113.310 -10550139.453 -22918284.986 10 0 60921 55800.00000 0 -804094.318 -11109052.948 -22919453.329 10 0 60921 56700.00000 0 1901089.570 -11859537.469 -22474197.993 10 0 60921 57600.00000 0 4467802.075 -12776224.375 -21591177.956 10 0 60921 58500.00000 0 6837544.577 -13823136.127 -20287599.327 10 0 60921 59400.00000 0 8960148.126 -14955186.929 -18588877.920 10 0 60921 60300.00000 0 10795613.960 -16120087.402 -16528139.436 10 0 60921 61200.00000 0 12315526.155 -17260572.607 -14145567.211 10 0 60921 62100.00000 0 13503978.249 -18316858.799 -11487610.644 10 0 60921 63000.00000 0 14357976.321 -19229224.500 -8606070.309 10 0 60921 63900.00000 0 14887303.279 -19940606.149 -5557078.378 10 0 60921 64800.00000 0 15113852.035 -20399097.966 -2399995.179 10 0 60921 65700.00000 0 15070457.829 -20560249.933 803755.651 10 0 60921 66600.00000 0 14799281.082 -20389066.480 3991889.650 10 0 60921 67500.00000 0 14349811.159 -19861621.486 7102477.366 10 0 60921 68400.00000 0 13776577.090 -18966221.627 10075149.257 10 0 60921 69300.00000 0 13136663.396 -17704069.502 12852265.768 10 0 60921 70200.00000 0 12487136.779 -16089399.153 15380029.958 10 0 60921 71100.00000 0 11882492.689 -14149078.800 17609521.476 10 0 60921 72000.00000 0 11372229.271 -11921697.860 19497632.645 10 0 60921 72900.00000 0 10998650.302 -9456176.605 21007889.687 10 0 60921 73800.00000 0 10794988.645 -6809956.256 22111144.558 10 0 60921 74700.00000 0 10783928.019 -4046844.370 22786125.453 10 0 60921 75600.00000 0 10976584.058 -1234604.064 23019836.744 10 0 60921 76500.00000 0 11371986.550 1557614.235 22807801.785 10 0 60921 77400.00000 0 11957083.988 4261893.653 22154144.759 10 0 60921 78300.00000 0 12707270.109 6814117.613 21071510.420 10 0 60921 79200.00000 0 13587410.687 9156378.017 19580823.217 10 0 60921 80100.00000 0 14553328.286 11239126.819 17710890.015 10 0 60921 81000.00000 0 15553683.784 13022983.348 15497853.203 10 0 60921 81900.00000 0 16532177.023 14480123.575 12984503.588 10 0 60921 82800.00000 0 17429975.415 15595194.433 10219465.083 10 0 60921 83700.00000 0 18188269.596 16365715.623 7256265.607 10 0 60921 84600.00000 0 18750849.396 16801952.349 4152310.946 10 0 60921 85500.00000 0 19066592.051 16926264.216 967780.500 99